Home   Weather   Vitória da Conquista   Past weeks

Flag for Brazil Past Weather in Vitória da Conquista, Bahia, Brazil — Yesterday and Last 2 Weeks

Now
77 °F

Partly cloudy.


Feels Like: 79 °F
Forecast: 61 / 72 °F
Wind: 5 mph from Southeast

Location: Salvador Aeroporto

Current Time: Sep 28, 2016 at 12:36:01 AM

Latest Report: Sep 28, 2016 at 12:00 AM


Visibility: N/A

Pressure: 30.01 "Hg (27.10 "Hg at 889m altitude)

Humidity: 79%

Dew Point: 70 °F

Location of Vitória da ConquistaLocation

Past Weather in Vitória da Conquista — Graph

°F

Vitória da Conquista Temperature Yesterday

Maximum temperature yesterday: 82 °F (at 10:00 AM)
Minimum temperature yesterday: 73 °F (at 4:00 AM)
Average temperature yesterday: 78 °F

High & Low Weather Summary for the Past Weeks

 TemperatureHumidityPressure
High84 °F (Sep 16, 12:00 PM)94% (Sep 14, 12:00 AM)30.12 "Hg (Sep 14, 12:00 AM)
Low68 °F (Sep 20, 6:00 AM)48% (Sep 19, 10:00 AM)29.89 "Hg (Sep 25, 3:00 PM)
Average78 °F75%30.02 "Hg
* Reported Sep 12 11:00 PM — Sep 27 11:00 PM, Vitória da Conquista, Weather by CustomWeather, © 2016

Note: Actual official high and low records may vary slightly from our data, if they occured in-between our weather recording intervals... More about our weather records

Advertising

Vitória da Conquista Weather History for the Previous 24 Hours

Scroll right to see more
 ConditionsComfort  
Time TempWeatherWind HumidityBarometerVisibility
11:00 PM
Tue, Sep 27
79 °FPartly cloudy.6 mph79%30.04 "HgN/A
10:00 PM79 °FPassing clouds.6 mph74%30.04 "HgN/A
9:00 PM79 °FPassing clouds.8 mph74%30.04 "HgN/A
8:00 PM79 °FPartly cloudy.8 mph74%30.01 "HgN/A
7:00 PM79 °FPassing clouds.9 mph74%30.01 "HgN/A
6:00 PM79 °FPassing clouds.9 mph74%29.98 "HgN/A
5:00 PM79 °FBroken clouds.10 mph74%29.98 "HgN/A
4:00 PM81 °FBroken clouds.9 mph70%29.95 "HgN/A
3:00 PM81 °FBroken clouds.12 mph70%29.95 "HgN/A
2:00 PM82 °FBroken clouds.10 mph70%29.95 "HgN/A
1:00 PM81 °FBroken clouds.10 mph74%29.98 "HgN/A
12:00 PM81 °FBroken clouds.12 mph70%30.01 "HgN/A
11:00 AM82 °FBroken clouds.12 mph66%30.01 "HgN/A
10:00 AM82 °FBroken clouds.9 mph66%30.04 "HgN/A
9:00 AM81 °FBroken clouds.9 mph70%30.04 "HgN/A
8:00 AM79 °FBroken clouds.3 mph74%30.01 "HgN/A
7:00 AM77 °FBroken clouds.3 mph79%30.01 "HgN/A
6:00 AM73 °FPartly sunny.2 mph89%29.98 "HgN/A
5:00 AM73 °FPassing clouds.No wind89%29.95 "HgN/A
4:00 AM73 °FPassing clouds.1 mph89%29.92 "HgN/A
3:00 AM75 °FPassing clouds.2 mph83%29.92 "HgN/A
2:00 AM75 °FClear.2 mph83%29.92 "Hg10 mi
1:00 AM75 °FClear.7 mph83%29.92 "Hg10 mi
12:00 AM77 °FClear.7 mph79%29.98 "Hg10 mi
Weather by CustomWeather, © 2016

See weather overviewHow to use our weather pages